This demonstration page uses our WeatherBlox Daily Observations layout. Learn more.

Hourly Observations for July 2, 2020

Temp ( °F °C ) Dew Point ( °F °C ) Humidity (%) Winds ( mph kmh ) Pressure ( in mb ) Visibility ( mi km ) Precip ( " mm )
12:15 am 00:15 Clear 69 20.8 61 16.1 75 75 E 7 11 29.93 1013 10 16.0934 0 0
12:35 am 00:35 Clear 71 21.5 62 16.6 74 74 E 7 11 29.92 1013 10 16.0934 0 0
12:55 am 00:55 Clear 66 18.7 61 16 84 84 Calm 29.94 1014 10 16.0934 0 0
1:15 am 01:15 Clear 65 18.4 61 16.2 87 87 Calm 29.95 1014 10 16.0934 0 0
1:35 am 01:35 Clear 65 18.6 62 16.5 88 88 Calm 29.94 1014 10 16.0934 0 0
1:55 am 01:55 Clear 67 19.2 61 16.3 83 83 ESE 5 7 29.94 1014 10 16.0934 0 0
2:15 am 02:15 Clear 67 19.3 62 16.9 86 86 ESE 5 7 29.94 1014 10 16.0934 0 0
2:35 am 02:35 Clear 68 19.9 64 17.5 86 86 ESE 8 13 29.93 1014 10 16.0934 0 0
2:55 am 02:55 Clear 68 20.2 64 17.8 86 86 ESE 6 9 29.93 1014 10 16.0934 0 0
3:15 am 03:15 Clear 68 20.1 64 17.9 87 87 ESE 7 11 29.93 1014 10 16.0934 0 0
3:35 am 03:35 Clear 69 20.3 64 18 87 87 SE 6 9 29.93 1014 10 16.0934 0 0
3:55 am 03:55 Clear 67 19.7 64 17.9 89 89 SE 5 7 29.93 1014 10 16.0934 0 0
4:15 am 04:15 Clear 66 18.9 63 17.2 90 90 Calm 29.95 1014 10 16.0934 0 0
4:35 am 04:35 Clear 64 18 63 17 94 94 E 3 6 29.96 1015 7 11.26538 0 0
4:55 am 04:55 Clear 62 16.9 61 15.9 94 94 E 5 7 29.97 1015 7 11.26538 0 0
5:15 am 05:15 Clear 62 16.9 61 16 94 94 E 3 6 29.97 1015 7 11.26538 0 0
5:35 am 05:35 Clear with Mist and Fog 62 16.7 61 16 96 96 ESE 3 6 29.97 1015 5 8.0467 0 0
5:55 am 05:55 Clear with Mist and Fog 63 17.3 62 16.8 97 97 ESE 5 7 29.98 1015 5 8.0467 0 0
6:15 am 06:15 Sunny with Mist and Fog 66 18.7 64 18 96 96 ESE 3 6 29.96 1015 4 6.43736 0 0
6:30 am 06:30 Sunny with Mist and Fog 66 18.8 65 18.2 96 96 ESE 3 6 29.96 1015 3 4.82802 0 0
6:55 am 06:55 Sunny with Mist and Fog 66 19 65 18.2 95 95 ESE 3 6 29.96 1015 3 4.82802 0 0
7:15 am 07:15 Sunny with Mist and Fog 68 20 66 18.9 93 93 ESE 5 7 29.95 1014 4 6.43736 0 0
7:35 am 07:35 Sunny with Mist and Fog 69 20.5 66 19 91 91 ESE 6 9 29.95 1014 5 8.0467 0 0
7:55 am 07:55 Sunny 71 21.4 66 19.1 87 87 ESE 6 9 29.94 1014 10 16.0934 0 0
8:15 am 08:15 Sunny 72 22.2 67 19.2 83 83 ESE 10 17 29.94 1014 10 16.0934 0 0
8:35 am 08:35 Sunny 74 23.1 67 19.3 79 79 ESE 12 19 29.95 1014 10 16.0934 0 0
8:55 am 08:55 Sunny 75 23.9 67 19.7 77 77 E 14 22 29.94 1014 10 16.0934 0 0
9:15 am 09:15 Partly Cloudy 76 24.4 68 19.8 76 76 ESE 13 20 29.93 1014 10 16.0934 0 0
9:35 am 09:35 Partly Cloudy 78 25.4 68 20 72 72 SE 12 19 29.94 1014 10 16.0934 0 0
9:55 am 09:55 Mostly Cloudy 80 26.5 68 19.8 67 67 SE 14 22 29.93 1013 10 16.0934 0 0
10:15 am 10:15 Cloudy 80 26.8 68 20 66 66 SE 9 15 29.92 1013 10 16.0934 0 0
10:35 am 10:35 Mostly Cloudy 82 27.5 68 20.2 64 64 SSE 7 11 29.93 1014 10 16.0934 0 0
10:55 am 10:55 Mostly Cloudy 83 28.2 69 20.6 63 63 SE 9 15 29.91 1013 10 16.0934 0 0
11:15 am 11:15 Mostly Cloudy 83 28.2 69 20.5 63 63 ESE 9 15 29.91 1013 10 16.0934 0 0
11:35 am 11:35 Mostly Cloudy 83 28.2 70 21 65 65 SE 9 15 29.91 1013 10 16.0934 0 0
11:55 am 11:55 Cloudy 85 29.3 70 21.1 61 61 ESE 12 19 29.9 1013 10 16.0934 0 0
12:15 pm 12:15 Cloudy 83 28.5 70 21 64 64 ESE 14 22 29.9 1013 10 16.0934 0 0
12:35 pm 12:35 Cloudy 85 29.2 70 21.2 62 62 ESE 8 13 29.9 1012 10 16.0934 0 0
12:55 pm 12:55 Cloudy 86 29.9 71 21.5 61 61 SE 9 15 29.88 1012 10 16.0934 0 0
1:15 pm 13:15 Mostly Cloudy 87 30.4 70 20.9 57 57 SE 8 13 29.88 1012 10 16.0934 0 0
1:35 pm 13:35 Mostly Cloudy 87 30.8 70 21 56 56 SE 10 17 29.87 1012 10 16.0934 0 0
1:55 pm 13:55 Cloudy 87 30.7 71 21.4 58 58 SE 13 20 29.86 1011 10 16.0934 0 0
2:15 pm 14:15 Mostly Cloudy 89 31.6 71 21.4 55 55 SE 12 19 29.85 1011 10 16.0934 0 0
2:35 pm 14:35 Mostly Cloudy 89 31.6 70 21.2 54 54 SE 12 19 29.84 1010 10 16.0934 0 0
2:55 pm 14:55 Partly Cloudy 91 32.5 70 21.2 51 51 SE 13 20 29.82 1010 10 16.0934 0 0
3:15 pm 15:15 Partly Cloudy 92 33.1 71 21.7 51 51 ESE 15 24 29.8 1009 10 16.0934 0 0
3:35 pm 15:35 Partly Cloudy 91 32.8 70 21.3 51 51 ESE 15 24 29.8 1009 10 16.0934 0 0
3:55 pm 15:55 Sunny 92 33.2 71 21.5 50 50 ESE 15 24 29.79 1009 10 16.0934 0 0
4:15 pm 16:15 Sunny 91 32.7 71 21.7 52 52 SE 16 26 29.79 1009 10 16.0934 0 0
4:35 pm 16:35 Partly Cloudy 91 32.7 71 21.8 53 53 SE 17 28 29.79 1009 10 16.0934 0 0
4:55 pm 16:55 Partly Cloudy 92 33.3 72 22 52 52 SE 12 19 29.78 1009 7 11.26538 0 0
5:15 pm 17:15 Partly Cloudy 91 32.8 71 21.9 53 53 SE 15 24 29.78 1008 10 16.0934 0 0
5:35 pm 17:35 Hazy 91 32.5 72 22 54 54 SE 16 26 29.77 1008 2.5 4.02335 0 0
5:55 pm 17:55 Mostly Cloudy with Haze 89 31.6 72 22.1 57 57 ESE 17 28 29.77 1008 2 3.21868 0 0
6:15 pm 18:15 Partly Cloudy 87 30.5 72 22.1 61 61 ESE 15 24 29.79 1009 10 16.0934 0 0
6:35 pm 18:35 Partly Cloudy 86 29.9 72 22.1 63 63 SE 13 20 29.8 1009 10 16.0934 0 0
6:55 pm 18:55 Sunny 85 29.5 72 22.4 66 66 SE 13 20 29.8 1009 10 16.0934 0 0
7:15 pm 19:15 Sunny 84 29 73 22.5 68 68 SE 12 19 29.8 1009 10 16.0934 0 0
7:35 pm 19:35 Sunny 83 28.5 72 22.2 69 69 ESE 10 17 29.79 1009 10 16.0934 0 0
7:55 pm 19:55 Sunny 83 28.3 72 22.1 69 69 SE 12 19 29.79 1009 10 16.0934 0 0
8:15 pm 20:15 Partly Cloudy with Nearby Thunderstorms 83 28.1 72 22.2 70 70 SE 15 24 29.81 1010 10 16.0934 0 0
8:35 pm 20:35 Partly Cloudy with Thunderstorms 82 27.8 72 22.2 72 72 ESE 12 19 29.83 1010 10 16.0934 0 0
8:55 pm 20:55 Mostly Cloudy with Thunderstorms 75 23.8 64 17.9 70 70 WSW 16 26 29.92 1013 10 16.0934 0 0
9:15 pm 21:15 Partly Cloudy with Nearby Thunderstorms 73 22.5 64 17.5 73 73 SW 12 19 29.93 1014 10 16.0934 0 0
9:35 pm 21:35 Partly Cloudy with Thunderstorms 73 22.6 62 16.9 70 70 W 7 11 29.96 1015 10 16.0934 0 0
9:55 pm 21:55 Mostly Cloudy with Light Rain 73 23 61 16 65 65 WSW 13 20 29.94 1014 10 16.0934 0 0
10:15 pm 22:15 Mostly Cloudy 71 21.4 62 16.9 76 76 SSW 16 26 29.93 1014 10 16.0934 0 0
10:35 pm 22:35 Mostly Cloudy with Light Drizzle 70 20.9 62 16.6 77 77 SSW 20 31 29.94 1014 10 16.0934 0 0
10:55 pm 22:55 Partly Cloudy with Light Rain 69 20.4 62 16.6 79 79 SW 26 43 29.95 1014 10 16.0934 0 0
11:15 pm 23:15 Partly Cloudy 69 20.7 60 15.7 73 73 SSW 22 35 29.94 1014 10 16.0934 0 0
11:35 pm 23:35 Clear 70 21 60 15.5 71 71 S 22 35 29.91 1013 10 16.0934 0 0
11:55 pm 23:55 Clear 70 21.2 59 15 68 68 S 18 30 29.88 1012 10 16.0934 0 0

Powered by AerisWeather